QPF
0.01 0.02 0.01 0.01 0.01 0.01 0.01 0.01 0.02 0.03 0.04 0.03 0.04 0.04 0.06 0.08 0.06 0.03 0.02 0.03 0.04 0.04 0.03 0.03 0.02 0.02 0.01 0.01 0.01 0.01 0.02 0.01 0.01 0.01 0.01 0.01 0.01 0.01 0.01 0.01 0.01 0.00 0.00
0.01 0.01 0.01 0.02 0.03 0.02 0.02 0.02 0.02 0.03 0.03 0.03 0.03 0.04 0.04 0.05 0.05 0.04 0.03 0.02 0.02 0.02 0.03 0.04 0.03 0.03 0.02 0.02 0.02 0.02 0.02 0.02 0.01 0.01 0.01 0.01 0.01 0.01 0.01 0.01 0.00 0.00 0.00
0.01 0.01 0.01 0.01 0.02 0.02 0.03 0.03 0.03 0.03 0.03 0.03 0.03 0.03 0.03 0.04 0.04 0.04 0.03 0.03 0.02 0.02 0.02 0.04 0.04 0.03 0.03 0.02 0.02 0.02 0.02 0.02 0.02 0.01 0.01 0.01 0.01 0.00 0.00 0.00 0.01 0.01 0.01
0.01 0.01 0.01 0.01 0.02 0.02 0.02 0.02 0.02 0.02 0.03 0.04 0.04 0.04 0.04 0.04 0.04 0.04 0.04 0.03 0.03 0.02 0.02 0.03 0.03 0.03 0.03 0.03 0.02 0.02 0.02 0.02 0.01 0.01 0.01 0.01 0.00 0.00 0.00 0.00 0.00 0.01 0.01
0.01 0.01 0.01 0.02 0.02 0.02 0.03 0.02 0.01 0.01 0.01 0.02 0.02 0.03 0.03 0.03 0.04 0.04 0.03 0.03 0.03 0.03 0.03 0.03 0.03 0.03 0.03 0.03 0.04 0.04 0.03 0.03 0.02 0.01 0.01 0.01 0.01 0.01 0.00 0.00 0.00 0.00 0.01
0.01 0.01 0.01 0.02 0.01 0.02 0.02 0.02 0.01 0.01 0.01 0.01 0.01 0.02 0.03 0.03 0.03 0.03 0.03 0.02 0.03 0.03 0.03 0.02 0.01 0.02 0.03 0.04 0.04 0.04 0.05 0.04 0.03 0.02 0.02 0.02 0.02 0.02 0.01 0.01 0.01 0.01 0.01
0.02 0.01 0.01 0.01 0.01 0.01 0.01 0.01 0.01 0.01 0.01 0.01 0.01 0.02 0.03 0.02 0.02 0.02 0.03 0.03 0.03 0.03 0.02 0.02 0.01 0.01 0.01 0.03 0.04 0.04 0.05 0.05 0.04 0.03 0.03 0.03 0.03 0.02 0.01 0.01 0.01 0.01 0.01
0.03 0.02 0.01 0.01 0.02 0.01 0.01 0.01 0.01 0.01 0.01 0.01 0.01 0.01 0.02 0.02 0.02 0.01 0.02 0.01 0.02 0.02 0.02 0.01 0.01 0.01 0.01 0.00 0.01 0.02 0.02 0.04 0.04 0.04 0.04 0.03 0.03 0.02 0.02 0.02 0.01 0.01 0.01
0.03 0.02 0.01 0.01 0.01 0.00 0.00 0.01 0.01 0.01 0.01 0.01 0.01 0.01 0.01 0.01 0.01 0.01 0.01 0.02 0.03 0.04 0.03 0.02 0.01 0.01 0.01 0.01 0.01 0.01 0.02 0.02 0.03 0.04 0.04 0.03 0.03 0.02 0.02 0.02 0.02 0.02 0.01
0.03 0.02 0.01 0.01 0.00 0.00 0.00 0.01 0.01 0.01 0.01 0.00 0.00 0.00 0.00 0.01 0.01 0.01 0.01 0.01 0.01 0.02 0.03 0.02 0.02 0.01 0.02 0.01 0.01 0.01 0.02 0.02 0.03 0.03 0.03 0.03 0.02 0.01 0.01 0.02 0.02 0.02 0.02
0.04 0.02 0.01 0.01 0.00 0.00 0.00 0.01 0.01 0.01 0.01 0.00 0.00 0.00 0.00 0.00 0.00 0.00 0.01 0.01 0.01 0.01 0.01 0.01 0.01 0.01 0.02 0.01 0.00 0.00 0.01 0.00 0.01 0.01 0.01 0.02 0.02 0.01 0.01 0.01 0.01 0.02 0.03
0.04 0.03 0.01 0.01 0.00 0.00 0.01 0.01 0.01 0.01 0.00 0.00 0.00 0.00 0.00 0.00 0.00 0.00 0.00 0.01 0.01 0.00 0.00 0.00 0.00 0.00 0.00 0.01 0.00 0.00 0.00 0.01 0.01 0.01 0.01 0.01 0.01 0.01 0.01 0.02 0.02 0.02 0.03
0.02 0.02 0.02 0.01 0.01 0.01 0.01 0.01 0.01 0.01 0.01 0.00 0.01 0.01 0.00 0.00 0.01 0.01 0.01 0.01 0.00 0.00 0.00 0.00 0.00 0.00 0.00 0.00 0.00 0.00 0.00 0.01 0.01 0.00 0.00 0.01 0.01 0.01 0.02 0.02 0.02 0.02 0.03
0.01 0.02 0.02 0.02 0.02 0.02 0.03 0.03 0.02 0.02 0.01 0.01 0.01 0.01 0.01 0.00 0.00 0.00 0.01 0.01 0.01 0.00 0.00 0.00 0.00 0.00 0.00 0.00 0.00 0.00 0.00 0.00 0.00 0.00 0.00 0.00 0.00 0.00 0.01 0.01 0.01 0.02 0.02
0.03 0.03 0.04 0.04 0.04 0.04 0.03 0.03 0.02 0.01 0.02 0.02 0.01 0.01 0.01 0.00 0.00 0.00 0.00 0.00 0.00 0.00 0.00 0.00 0.00 0.00 0.00 0.00 0.00 0.00 0.00 0.00 0.00 0.00 0.00 0.00 0.00 0.00 0.00 0.00 0.00 0.00 0.00
0.07 0.06 0.06 0.06 0.06 0.05 0.04 0.04 0.03 0.03 0.03 0.02 0.02 0.01 0.01 0.01 0.01 0.01 0.01 0.01 0.01 0.00 0.00 0.00 0.00 0.00 0.00 0.00 0.00 0.00 0.00 0.00 0.00 0.00 0.00 0.00 0.00 0.00 0.00 0.00 0.00 0.00 0.00
0.08 0.07 0.06 0.06 0.07 0.05 0.04 0.03 0.03 0.03 0.03 0.03 0.03 0.02 0.01 0.02 0.01 0.01 0.01 0.01 0.01 0.01 0.01 0.00 0.00 0.00 0.01 0.01 0.01 0.00 0.00 0.00 0.00 0.00 0.00 0.00 0.00 0.00 0.00 0.00 0.00 0.00 0.00
0.07 0.06 0.07 0.08 0.06 0.04 0.04 0.03 0.03 0.03 0.04 0.03 0.03 0.03 0.03 0.03 0.02 0.02 0.02 0.02 0.01 0.01 0.01 0.00 0.00 0.00 0.01 0.01 0.01 0.01 0.00 0.00 0.00 0.00 0.00 0.00 0.00 0.00 0.00 0.00 0.00 0.00 0.00
0.09 0.09 0.08 0.08 0.07 0.06 0.06 0.05 0.05 0.05 0.04 0.04 0.04 0.03 0.02 0.02 0.02 0.02 0.03 0.02 0.02 0.01 0.01 0.01 0.00 0.00 0.00 0.01 0.01 0.01 0.01 0.00 0.00 0.00 0.01 0.00 0.00 0.00 0.00 0.00 0.00 0.00 0.00
0.11 0.10 0.08 0.08 0.09 0.10 0.09 0.08 0.07 0.05 0.05 0.05 0.04 0.04 0.03 0.02 0.02 0.03 0.04 0.03 0.03 0.02 0.02 0.02 0.01 0.00 0.01 0.01 0.02 0.02 0.01 0.01 0.01 0.01 0.01 0.01 0.00 0.00 0.00 0.00 0.00 0.00 0.00
0.11 0.12 0.12 0.12 0.13 0.12 0.11 0.11 0.09 0.08 0.07 0.06 0.06 0.05 0.05 0.06 0.07 0.06 0.04 0.03 0.03 0.03 0.03 0.03 0.02 0.01 0.01 0.01 0.01 0.02 0.01 0.01 0.01 0.01 0.02 0.01 0.01 0.01 0.01 0.01 0.01 0.01 0.01
0.14 0.14 0.14 0.14 0.14 0.13 0.12 0.14 0.13 0.12 0.12 0.10 0.08 0.08 0.07 0.08 0.07 0.05 0.04 0.04 0.04 0.04 0.03 0.02 0.02 0.02 0.01 0.01 0.01 0.02 0.01 0.01 0.00 0.01 0.01 0.01 0.01 0.01 0.01 0.01 0.01 0.01 0.01
0.15 0.14 0.15 0.16 0.15 0.14 0.16 0.16 0.17 0.15 0.13 0.11 0.09 0.07 0.07 0.07 0.08 0.07 0.08 0.08 0.05 0.04 0.03 0.02 0.01 0.01 0.01 0.02 0.02 0.02 0.01 0.01 0.01 0.01 0.01 0.01 0.01 0.01 0.01 0.01 0.01 0.01 0.01
0.12 0.14 0.15 0.15 0.14 0.14 0.15 0.14 0.13 0.11 0.09 0.08 0.06 0.05 0.05 0.04 0.05 0.06 0.06 0.06 0.06 0.05 0.04 0.03 0.01 0.01 0.01 0.02 0.02 0.02 0.02 0.02 0.01 0.01 0.01 0.01 0.01 0.01 0.01 0.01 0.01 0.02 0.01
0.13 0.13 0.13 0.14 0.15 0.14 0.14 0.12 0.12 0.09 0.07 0.06 0.05 0.04 0.04 0.03 0.03 0.03 0.02 0.02 0.03 0.03 0.04 0.04 0.03 0.02 0.02 0.03 0.03 0.04 0.03 0.03 0.02 0.01 0.01 0.01 0.01 0.01 0.01 0.01 0.02 0.02 0.02
0.15 0.16 0.15 0.15 0.16 0.15 0.16 0.16 0.13 0.10 0.08 0.07 0.06 0.05 0.03 0.03 0.03 0.02 0.02 0.02 0.02 0.02 0.03 0.04 0.03 0.03 0.03 0.04 0.05 0.05 0.04 0.04 0.03 0.02 0.01 0.02 0.01 0.02 0.02 0.02 0.02 0.02 0.02
MSLP
1016.63 1016.73 1016.72 1016.64 1016.56 1016.52 1016.56 1016.70 1016.92 1017.20 1017.49 1017.76 1017.99 1018.17 1018.30 1018.41 1018.50 1018.60 1018.71 1018.85 1019.01 1019.18 1019.36 1019.54 1019.73 1019.90 1020.08 1020.23 1020.37 1020.49 1020.59 1020.67 1020.75 1020.85 1020.97 1021.13 1021.33 1021.55 1021.78 1022.00 1022.18 1022.31 1022.39
1016.62 1016.74 1016.75 1016.70 1016.65 1016.63 1016.70 1016.85 1017.08 1017.37 1017.68 1017.98 1018.24 1018.44 1018.59 1018.70 1018.76 1018.82 1018.88 1018.95 1019.05 1019.18 1019.34 1019.53 1019.74 1019.96 1020.17 1020.36 1020.52 1020.65 1020.73 1020.79 1020.84 1020.91 1021.01 1021.16 1021.35 1021.58 1021.82 1022.05 1022.24 1022.38 1022.47
1016.55 1016.70 1016.75 1016.76 1016.76 1016.80 1016.90 1017.07 1017.31 1017.61 1017.93 1018.24 1018.52 1018.74 1018.90 1019.00 1019.05 1019.06 1019.06 1019.08 1019.12 1019.20 1019.33 1019.51 1019.73 1019.98 1020.22 1020.45 1020.63 1020.75 1020.83 1020.87 1020.89 1020.92 1020.99 1021.11 1021.29 1021.52 1021.76 1022.00 1022.22 1022.38 1022.50
1016.43 1016.60 1016.72 1016.81 1016.89 1017.00 1017.14 1017.34 1017.60 1017.89 1018.21 1018.52 1018.80 1019.03 1019.20 1019.30 1019.33 1019.32 1019.28 1019.23 1019.22 1019.24 1019.34 1019.50 1019.71 1019.97 1020.23 1020.48 1020.67 1020.81 1020.88 1020.89 1020.89 1020.88 1020.92 1021.01 1021.16 1021.37 1021.62 1021.87 1022.10 1022.30 1022.45
1016.25 1016.47 1016.66 1016.84 1017.02 1017.20 1017.40 1017.63 1017.89 1018.18 1018.47 1018.77 1019.04 1019.28 1019.45 1019.56 1019.60 1019.58 1019.51 1019.43 1019.36 1019.34 1019.38 1019.50 1019.70 1019.94 1020.20 1020.45 1020.66 1020.79 1020.86 1020.86 1020.83 1020.81 1020.81 1020.87 1020.99 1021.18 1021.42 1021.67 1021.92 1022.14 1022.31
1016.05 1016.31 1016.58 1016.84 1017.11 1017.37 1017.63 1017.88 1018.14 1018.41 1018.68 1018.95 1019.22 1019.45 1019.65 1019.78 1019.84 1019.82 1019.75 1019.65 1019.55 1019.47 1019.47 1019.54 1019.68 1019.90 1020.14 1020.38 1020.58 1020.72 1020.78 1020.79 1020.75 1020.70 1020.68 1020.71 1020.81 1020.98 1021.19 1021.43 1021.68 1021.90 1022.10
1015.84 1016.14 1016.46 1016.81 1017.16 1017.49 1017.79 1018.06 1018.32 1018.56 1018.80 1019.05 1019.30 1019.55 1019.77 1019.94 1020.03 1020.05 1020.00 1019.89 1019.76 1019.65 1019.58 1019.59 1019.68 1019.84 1020.04 1020.26 1020.45 1020.58 1020.66 1020.67 1020.64 1020.59 1020.57 1020.58 1020.66 1020.79 1020.98 1021.20 1021.42 1021.63 1021.81
1015.66 1015.97 1016.34 1016.75 1017.16 1017.54 1017.87 1018.15 1018.39 1018.61 1018.83 1019.06 1019.31 1019.57 1019.82 1020.03 1020.18 1020.24 1020.22 1020.12 1019.98 1019.82 1019.70 1019.64 1019.66 1019.76 1019.91 1020.09 1020.26 1020.39 1020.48 1020.51 1020.51 1020.48 1020.47 1020.48 1020.54 1020.65 1020.80 1020.98 1021.16 1021.33 1021.48
1015.52 1015.84 1016.24 1016.67 1017.11 1017.52 1017.87 1018.15 1018.38 1018.58 1018.77 1018.99 1019.24 1019.52 1019.81 1020.07 1020.27 1020.38 1020.39 1020.31 1020.16 1019.98 1019.81 1019.68 1019.62 1019.65 1019.74 1019.87 1020.02 1020.15 1020.25 1020.32 1020.35 1020.36 1020.37 1020.40 1020.46 1020.55 1020.66 1020.79 1020.91 1021.03 1021.13
1015.45 1015.76 1016.16 1016.61 1017.06 1017.47 1017.82 1018.09 1018.30 1018.49 1018.67 1018.88 1019.14 1019.44 1019.76 1020.07 1020.32 1020.47 1020.51 1020.45 1020.29 1020.09 1019.87 1019.68 1019.55 1019.50 1019.53 1019.61 1019.73 1019.86 1019.98 1020.07 1020.15 1020.21 1020.26 1020.32 1020.38 1020.46 1020.54 1020.62 1020.69 1020.74 1020.77
1015.44 1015.74 1016.13 1016.56 1017.00 1017.39 1017.73 1017.99 1018.20 1018.37 1018.55 1018.76 1019.03 1019.35 1019.70 1020.03 1020.31 1020.50 1020.56 1020.51 1020.35 1020.12 1019.87 1019.62 1019.44 1019.32 1019.29 1019.32 1019.41 1019.52 1019.65 1019.78 1019.89 1020.00 1020.09 1020.18 1020.27 1020.34 1020.41 1020.44 1020.46 1020.45 1020.42
1015.47 1015.76 1016.13 1016.53 1016.94 1017.32 1017.63 1017.88 1018.08 1018.25 1018.43 1018.65 1018.93 1019.26 1019.62 1019.97 1020.26 1020.46 1020.54 1020.49 1020.33 1020.09 1019.81 1019.53 1019.30 1019.13 1019.04 1019.02 1019.07 1019.17 1019.29 1019.42 1019.57 1019.71 1019.84 1019.97 1020.08 1020.17 1020.22 1020.24 1020.22 1020.16 1020.09
1015.52 1015.81 1016.15 1016.52 1016.90 1017.24 1017.53 1017.77 1017.96 1018.13 1018.32 1018.55 1018.84 1019.17 1019.53 1019.88 1020.17 1020.36 1020.44 1020.39 1020.23 1019.99 1019.70 1019.41 1019.15 1018.94 1018.81 1018.75 1018.76 1018.81 1018.91 1019.04 1019.18 1019.34 1019.50 1019.66 1019.79 1019.90 1019.96 1019.97 1019.94 1019.86 1019.77
1015.56 1015.84 1016.16 1016.50 1016.84 1017.15 1017.42 1017.64 1017.83 1018.02 1018.22 1018.46 1018.75 1019.07 1019.42 1019.75 1020.02 1020.20 1020.27 1020.23 1020.08 1019.85 1019.57 1019.28 1019.02 1018.80 1018.63 1018.53 1018.49 1018.50 1018.55 1018.64 1018.76 1018.91 1019.08 1019.24 1019.40 1019.52 1019.60 1019.63 1019.61 1019.54 1019.44
1015.55 1015.83 1016.14 1016.45 1016.75 1017.03 1017.28 1017.49 1017.69 1017.88 1018.10 1018.34 1018.63 1018.95 1019.27 1019.57 1019.82 1019.98 1020.05 1020.01 1019.87 1019.67 1019.43 1019.17 1018.92 1018.70 1018.52 1018.38 1018.29 1018.24 1018.23 1018.26 1018.34 1018.45 1018.59 1018.75 1018.91 1019.05 1019.16 1019.21 1019.21 1019.16 1019.08
1015.48 1015.76 1016.04 1016.33 1016.60 1016.86 1017.09 1017.30 1017.50 1017.71 1017.93 1018.18 1018.47 1018.77 1019.06 1019.34 1019.56 1019.70 1019.76 1019.73 1019.63 1019.47 1019.28 1019.07 1018.86 1018.66 1018.48 1018.32 1018.18 1018.06 1017.98 1017.94 1017.95 1018.00 1018.10 1018.23 1018.37 1018.51 1018.63 1018.71 1018.74 1018.73 1018.67
1015.31 1015.59 1015.86 1016.13 1016.38 1016.63 1016.85 1017.06 1017.26 1017.48 1017.71 1017.96 1018.23 1018.51 1018.78 1019.02 1019.21 1019.34 1019.41 1019.41 1019.35 1019.25 1019.12 1018.97 1018.82 1018.66 1018.49 1018.32 1018.14 1017.98 1017.82 1017.70 1017.62 1017.60 1017.63 1017.71 1017.82 1017.94 1018.06 1018.15 1018.20 1018.21 1018.19
1015.07 1015.34 1015.60 1015.86 1016.10 1016.34 1016.56 1016.77 1016.98 1017.19 1017.42 1017.66 1017.91 1018.17 1018.41 1018.63 1018.80 1018.93 1019.00 1019.03 1019.02 1018.99 1018.93 1018.86 1018.77 1018.66 1018.52 1018.36 1018.16 1017.95 1017.74 1017.54 1017.38 1017.27 1017.23 1017.24 1017.30 1017.38 1017.48 1017.56 1017.61 1017.63 1017.63
1014.75 1015.02 1015.28 1015.54 1015.78 1016.02 1016.24 1016.45 1016.65 1016.86 1017.08 1017.30 1017.54 1017.77 1017.98 1018.18 1018.34 1018.46 1018.55 1018.62 1018.66 1018.69 1018.70 1018.71 1018.69 1018.64 1018.54 1018.40 1018.20 1017.97 1017.72 1017.46 1017.23 1017.05 1016.92 1016.85 1016.84 1016.87 1016.91 1016.96 1016.99 1017.00 1017.00
1014.39 1014.66 1014.93 1015.20 1015.46 1015.70 1015.93 1016.14 1016.33 1016.52 1016.72 1016.92 1017.13 1017.33 1017.53 1017.70 1017.86 1017.99 1018.10 1018.19 1018.28 1018.37 1018.45 1018.52 1018.56 1018.57 1018.52 1018.42 1018.24 1018.01 1017.74 1017.45 1017.17 1016.92 1016.72 1016.57 1016.48 1016.43 1016.41 1016.39 1016.38 1016.36 1016.32
1014.02 1014.31 1014.61 1014.90 1015.18 1015.44 1015.67 1015.87 1016.06 1016.23 1016.40 1016.57 1016.75 1016.93 1017.10 1017.27 1017.42 1017.55 1017.68 1017.80 1017.93 1018.06 1018.19 1018.31 1018.41 1018.47 1018.47 1018.41 1018.27 1018.06 1017.79 1017.49 1017.18 1016.88 1016.62 1016.40 1016.22 1016.09 1015.99 1015.90 1015.82 1015.74 1015.66
1013.69 1014.01 1014.35 1014.69 1015.00 1015.28 1015.51 1015.71 1015.87 1016.02 1016.16 1016.30 1016.45 1016.61 1016.77 1016.93 1017.08 1017.23 1017.38 1017.52 1017.67 1017.82 1017.98 1018.14 1018.27 1018.37 1018.41 1018.39 1018.29 1018.11 1017.87 1017.57 1017.25 1016.93 1016.62 1016.34 1016.09 1015.87 1015.68 1015.51 1015.35 1015.21 1015.08
1013.43 1013.82 1014.22 1014.61 1014.96 1015.26 1015.49 1015.68 1015.82 1015.94 1016.05 1016.17 1016.30 1016.44 1016.60 1016.76 1016.93 1017.09 1017.25 1017.41 1017.57 1017.73 1017.90 1018.06 1018.21 1018.33 1018.40 1018.40 1018.33 1018.19 1017.98 1017.70 1017.39 1017.05 1016.71 1016.37 1016.06 1015.77 1015.50 1015.25 1015.02 1014.81 1014.62
1013.32 1013.78 1014.25 1014.69 1015.08 1015.39 1015.63 1015.81 1015.93 1016.02 1016.11 1016.21 1016.33 1016.48 1016.65 1016.83 1017.01 1017.19 1017.36 1017.53 1017.69 1017.85 1018.00 1018.15 1018.29 1018.40 1018.47 1018.49 1018.44 1018.32 1018.14 1017.88 1017.58 1017.23 1016.87 1016.50 1016.13 1015.78 1015.44 1015.13 1014.83 1014.56 1014.32
1013.39 1013.93 1014.46 1014.95 1015.36 1015.69 1015.93 1016.09 1016.19 1016.27 1016.35 1016.44 1016.57 1016.74 1016.93 1017.13 1017.35 1017.55 1017.74 1017.91 1018.06 1018.20 1018.33 1018.44 1018.55 1018.63 1018.68 1018.69 1018.64 1018.53 1018.35 1018.11 1017.81 1017.46 1017.08 1016.68 1016.28 1015.88 1015.50 1015.14 1014.79 1014.48 1014.19
1013.65 1014.26 1014.85 1015.36 1015.79 1016.12 1016.35 1016.50 1016.59 1016.66 1016.74 1016.85 1017.00 1017.19 1017.42 1017.66 1017.91 1018.14 1018.34 1018.52 1018.66 1018.77 1018.86 1018.94 1019.00 1019.03 1019.04 1019.02 1018.94 1018.82 1018.62 1018.38 1018.07 1017.71 1017.32 1016.90 1016.47 1016.05 1015.63 1015.24 1014.86 1014.52 1014.20
Thickness
5748 5747 5745 5744 5742 5742 5741 5739 5738 5737 5737 5736 5735 5733 5731 5729 5727 5724 5723 5721 5720 5718 5717 5716 5715 5714 5713 5712 5711 5711 5710 5710 5709 5709 5708 5708 5707 5707 5706 5705 5704 5703 5703
5748 5746 5744 5742 5742 5741 5740 5739 5738 5737 5735 5735 5734 5733 5730 5728 5726 5724 5722 5721 5719 5718 5716 5715 5714 5713 5712 5711 5710 5710 5709 5709 5708 5707 5707 5706 5706 5705 5705 5704 5703 5702 5701
5748 5746 5744 5742 5741 5741 5740 5739 5738 5736 5735 5734 5733 5732 5730 5728 5726 5723 5722 5720 5719 5717 5716 5715 5713 5712 5712 5711 5710 5709 5708 5707 5707 5706 5705 5705 5704 5704 5703 5702 5702 5701 5700
5748 5746 5743 5742 5741 5740 5739 5738 5737 5735 5733 5732 5731 5730 5729 5727 5725 5723 5721 5720 5719 5717 5716 5715 5713 5713 5711 5710 5710 5709 5707 5706 5706 5705 5704 5704 5703 5702 5702 5701 5700 5700 5699
5747 5745 5743 5742 5740 5739 5738 5738 5736 5734 5731 5730 5730 5729 5729 5727 5726 5724 5722 5721 5719 5718 5716 5715 5714 5713 5712 5711 5710 5708 5707 5706 5705 5704 5703 5703 5702 5701 5700 5700 5699 5699 5698
5745 5744 5742 5741 5740 5738 5736 5736 5734 5733 5732 5730 5730 5728 5727 5727 5727 5725 5723 5722 5721 5719 5718 5716 5715 5713 5712 5711 5710 5709 5708 5706 5705 5704 5703 5702 5701 5701 5700 5699 5699 5698 5697
5743 5743 5742 5740 5739 5737 5736 5735 5733 5732 5730 5730 5726 5723 5724 5727 5727 5727 5726 5724 5723 5721 5720 5718 5717 5715 5714 5713 5711 5710 5708 5707 5706 5705 5704 5703 5702 5701 5700 5699 5698 5698 5697
5742 5741 5740 5739 5738 5736 5734 5733 5732 5729 5729 5729 5724 5717 5714 5717 5723 5728 5727 5726 5725 5723 5722 5720 5719 5717 5715 5714 5713 5711 5710 5708 5707 5706 5705 5704 5703 5702 5701 5700 5699 5698 5697
5740 5740 5739 5738 5737 5735 5733 5732 5732 5729 5726 5727 5727 5721 5712 5710 5716 5722 5726 5727 5726 5724 5724 5723 5721 5719 5718 5716 5715 5713 5712 5710 5708 5707 5706 5705 5704 5703 5701 5700 5699 5698 5697
5739 5738 5737 5737 5736 5735 5733 5732 5732 5730 5728 5725 5726 5727 5725 5722 5715 5714 5721 5725 5726 5725 5725 5725 5724 5722 5720 5718 5717 5716 5714 5712 5710 5709 5707 5706 5705 5703 5702 5701 5699 5698 5697
5737 5737 5736 5735 5734 5734 5733 5732 5731 5731 5729 5726 5725 5725 5724 5723 5721 5716 5713 5719 5723 5726 5726 5726 5725 5724 5723 5721 5719 5717 5716 5714 5712 5710 5708 5707 5706 5704 5703 5701 5700 5699 5698
5734 5735 5735 5734 5734 5733 5732 5731 5731 5730 5729 5728 5726 5725 5724 5721 5719 5717 5714 5715 5717 5722 5726 5726 5726 5725 5724 5722 5721 5719 5717 5715 5713 5711 5709 5708 5706 5705 5703 5702 5700 5699 5698
5732 5733 5734 5733 5732 5732 5731 5730 5730 5729 5728 5727 5726 5725 5725 5724 5724 5721 5717 5714 5715 5719 5723 5725 5727 5726 5725 5723 5722 5720 5718 5716 5714 5712 5710 5708 5706 5705 5703 5702 5700 5699 5698
5733 5733 5733 5732 5731 5731 5730 5729 5729 5728 5727 5726 5726 5725 5724 5724 5724 5723 5719 5715 5711 5712 5716 5720 5725 5726 5725 5724 5723 5720 5718 5716 5713 5712 5709 5708 5706 5704 5703 5701 5699 5698 5697
5733 5733 5732 5730 5730 5729 5729 5728 5727 5726 5726 5725 5724 5724 5723 5723 5723 5723 5722 5719 5712 5706 5707 5715 5720 5725 5724 5723 5722 5719 5717 5715 5713 5711 5709 5707 5705 5703 5701 5700 5698 5697 5696
5732 5731 5730 5729 5728 5727 5727 5726 5725 5724 5723 5722 5722 5721 5720 5720 5720 5720 5720 5718 5716 5711 5706 5712 5717 5721 5722 5721 5720 5718 5716 5714 5712 5710 5708 5706 5704 5702 5700 5699 5697 5696 5694
5731 5729 5729 5727 5726 5725 5725 5723 5722 5722 5720 5719 5719 5718 5718 5718 5717 5717 5716 5715 5713 5711 5706 5709 5713 5717 5717 5717 5716 5714 5712 5710 5709 5707 5706 5704 5702 5701 5699 5697 5695 5694 5692
5729 5729 5727 5726 5724 5724 5722 5721 5720 5719 5718 5716 5716 5715 5714 5714 5713 5712 5711 5710 5709 5709 5705 5703 5706 5709 5711 5711 5711 5708 5708 5706 5705 5704 5702 5701 5699 5698 5696 5695 5693 5691 5689
5727 5726 5725 5723 5722 5721 5720 5719 5718 5717 5716 5715 5714 5712 5711 5709 5708 5707 5707 5706 5705 5705 5703 5700 5699 5702 5703 5704 5703 5702 5702 5701 5700 5700 5699 5697 5696 5695 5693 5692 5690 5688 5686
5724 5723 5721 5720 5720 5719 5718 5717 5715 5714 5713 5712 5711 5710 5708 5706 5705 5704 5703 5701 5700 5698 5697 5694 5693 5693 5694 5695 5694 5692 5692 5693 5693 5694 5694 5692 5691 5690 5689 5688 5686 5684 5683
5722 5720 5717 5716 5716 5715 5714 5712 5711 5711 5709 5708 5707 5706 5705 5704 5703 5702 5700 5697 5695 5692 5690 5687 5686 5685 5685 5684 5684 5684 5683 5684 5685 5686 5685 5685 5684 5684 5683 5681 5680 5679 5678
5718 5716 5714 5712 5711 5711 5710 5709 5708 5706 5705 5703 5701 5701 5700 5699 5699 5698 5697 5695 5692 5688 5684 5681 5679 5677 5678 5677 5677 5676 5674 5672 5672 5676 5673 5675 5675 5675 5675 5674 5673 5672 5671
5714 5711 5709 5707 5705 5705 5705 5704 5703 5701 5699 5697 5696 5694 5694 5694 5692 5691 5690 5688 5686 5684 5682 5677 5673 5672 5671 5670 5668 5667 5665 5663 5664 5666 5663 5664 5665 5664 5666 5666 5665 5664 5663
5708 5705 5702 5700 5699 5698 5698 5698 5696 5694 5691 5690 5689 5687 5685 5684 5684 5682 5681 5679 5677 5675 5673 5672 5669 5668 5666 5664 5662 5659 5657 5656 5657 5656 5654 5651 5655 5654 5657 5657 5656 5654 5653
5700 5697 5695 5692 5690 5689 5690 5690 5689 5686 5683 5681 5679 5678 5677 5674 5673 5673 5670 5667 5665 5664 5663 5662 5660 5659 5657 5655 5653 5649 5646 5642 5642 5644 5642 5639 5642 5642 5644 5645 5645 5643 5642
5690 5689 5685 5683 5682 5680 5680 5681 5680 5677 5673 5670 5668 5667 5666 5664 5662 5661 5658 5656 5653 5651 5649 5649 5648 5647 5645 5644 5641 5637 5634 5630 5628 5628 5631 5626 5626 5625 5626 5631 5631 5630 5629